Year,Month,Day,Hour,Minute,Value (Times are PST for insolation in W/m^2)
2021,04,27,08,59,193.00
2021,04,27,09,00,193.00
2021,04,27,09,01,186.70
2021,04,27,09,02,185.00
2021,04,27,09,03,180.90
2021,04,27,09,04,178.20
2021,04,27,09,05,168.10
2021,04,27,09,06,152.90
2021,04,27,09,07,144.90
2021,04,27,09,08,140.20
2021,04,27,09,09,135.70
2021,04,27,09,10,131.10
2021,04,27,09,11,125.30
2021,04,27,09,12,117.40
2021,04,27,09,13,106.00
2021,04,27,09,14,94.00
2021,04,27,09,15,87.00
2021,04,27,09,16,86.00
2021,04,27,09,17,84.20
2021,04,27,09,18,76.90
2021,04,27,09,19,74.00
2021,04,27,09,20,74.00
2021,04,27,09,21,74.50
2021,04,27,09,22,75.40
2021,04,27,09,23,71.30
2021,04,27,09,24,64.00
2021,04,27,09,25,61.00
2021,04,27,09,26,62.50
2021,04,27,09,27,63.00
2021,04,27,09,28,63.00
2021,04,27,09,29,63.00
2021,04,27,09,30,63.00
2021,04,27,09,31,63.00
2021,04,27,09,32,63.00
2021,04,27,09,33,60.10
2021,04,27,09,34,74.40
2021,04,27,09,35,84.00
2021,04,27,09,36,90.60
2021,04,27,09,37,92.30
2021,04,27,09,38,88.70
2021,04,27,09,39,86.00
2021,04,27,09,40,88.10
2021,04,27,09,41,92.00
2021,04,27,09,42,93.00
2021,04,27,09,43,91.80
2021,04,27,09,44,92.40
2021,04,27,09,45,96.80
2021,04,27,09,46,98.00
2021,04,27,09,47,93.70
2021,04,27,09,48,91.10
2021,04,27,09,49,85.60
2021,04,27,09,50,76.30
2021,04,27,09,51,71.00
2021,04,27,09,52,66.50
2021,04,27,09,53,66.60
2021,04,27,09,54,72.30
2021,04,27,09,55,77.30
2021,04,27,09,56,82.50
2021,04,27,09,57,92.30
2021,04,27,09,58,97.60
2021,04,27,09,59,94.60
2021,04,27,10,00,91.50
2021,04,27,10,01,101.60
2021,04,27,10,02,118.50
2021,04,27,10,03,124.80
2021,04,27,10,04,127.00
2021,04,27,10,05,126.70
2021,04,27,10,06,126.70
2021,04,27,10,07,139.00
2021,04,27,10,08,163.90
2021,04,27,10,09,199.00
2021,04,27,10,10,242.10
2021,04,27,10,11,276.50
2021,04,27,10,12,295.40
2021,04,27,10,13,301.60
2021,04,27,10,14,291.80
2021,04,27,10,15,275.60
2021,04,27,10,16,280.90
2021,04,27,10,17,286.50
2021,04,27,10,18,276.50
2021,04,27,10,19,271.70
2021,04,27,10,20,262.00
2021,04,27,10,21,238.20
2021,04,27,10,22,213.50
2021,04,27,10,23,194.50
2021,04,27,10,24,184.20
2021,04,27,10,25,173.10
2021,04,27,10,26,154.00
2021,04,27,10,27,144.00
2021,04,27,10,28,142.90
2021,04,27,10,29,139.20
2021,04,27,10,30,130.10
2021,04,27,10,31,124.00
2021,04,27,10,32,127.30
2021,04,27,10,33,125.10
2021,04,27,10,34,108.80
2021,04,27,10,35,102.10
2021,04,27,10,36,86.20
2021,04,27,10,37,66.00
2021,04,27,10,38,51.10
2021,04,27,10,39,49.70
2021,04,27,10,40,60.90
2021,04,27,10,41,79.00
2021,04,27,10,42,98.90
2021,04,27,10,43,125.60
2021,04,27,10,44,154.00
2021,04,27,10,45,172.70
2021,04,27,10,46,174.40
2021,04,27,10,47,163.60
2021,04,27,10,48,133.40
2021,04,27,10,49,120.30
2021,04,27,10,50,108.50
2021,04,27,10,51,121.60
2021,04,27,10,52,140.30
2021,04,27,10,53,152.60
2021,04,27,10,54,156.80
2021,04,27,10,55,158.00
2021,04,27,10,56,157.00
2021,04,27,10,57,155.40
2021,04,27,10,58,155.00
2021,04,27,10,59,155.70
2021,04,27,11,00,161.30
2021,04,27,11,01,170.60
2021,04,27,11,02,181.50
2021,04,27,11,03,192.50
2021,04,27,11,04,204.60
2021,04,27,11,05,217.50
2021,04,27,11,06,228.30
2021,04,27,11,07,235.70
2021,04,27,11,08,242.60
2021,04,27,11,09,247.50
2021,04,27,11,10,253.60
2021,04,27,11,11,263.80
2021,04,27,11,12,274.10
2021,04,27,11,13,282.30
2021,04,27,11,14,283.60
2021,04,27,11,15,277.70
2021,04,27,11,16,266.30
2021,04,27,11,17,250.20
2021,04,27,11,18,236.60
2021,04,27,11,19,232.00
2021,04,27,11,20,232.30
2021,04,27,11,21,234.40
2021,04,27,11,22,236.70
2021,04,27,11,23,239.60
2021,04,27,11,24,242.10
2021,04,27,11,25,244.90
2021,04,27,11,26,248.50
2021,04,27,11,27,256.10
2021,04,27,11,28,260.00
2021,04,27,11,29,266.10
2021,04,27,11,30,271.30
2021,04,27,11,31,275.20
2021,04,27,11,32,280.30
2021,04,27,11,33,293.40
2021,04,27,11,34,301.30
2021,04,27,11,35,308.40
2021,04,27,11,36,311.00
2021,04,27,11,37,312.20
2021,04,27,11,38,320.10
2021,04,27,11,39,335.10
2021,04,27,11,40,346.30
2021,04,27,11,41,350.00
2021,04,27,11,42,350.90
2021,04,27,11,43,350.00
2021,04,27,11,44,326.10
2021,04,27,11,45,309.70
2021,04,27,11,46,310.40
2021,04,27,11,47,330.90
2021,04,27,11,48,335.90
2021,04,27,11,49,315.40
2021,04,27,11,50,308.00
2021,04,27,11,51,301.00
2021,04,27,11,52,298.90
2021,04,27,11,53,305.30
2021,04,27,11,54,304.60
2021,04,27,11,55,294.30
2021,04,27,11,56,283.50
2021,04,27,11,57,276.10
2021,04,27,11,58,270.90
2021,04,27,11,59,262.90
2021,04,27,12,00,256.20
2021,04,27,12,01,256.60
2021,04,27,12,02,257.90
2021,04,27,12,03,261.80
2021,04,27,12,04,267.10
2021,04,27,12,05,269.00
2021,04,27,12,06,270.00
2021,04,27,12,07,275.20
2021,04,27,12,08,281.50
2021,04,27,12,09,289.70
2021,04,27,12,10,295.30
2021,04,27,12,11,299.50
2021,04,27,12,12,305.40
2021,04,27,12,13,308.00
2021,04,27,12,14,308.00
2021,04,27,12,15,303.40
2021,04,27,12,16,288.20
2021,04,27,12,17,277.20
2021,04,27,12,18,276.00
2021,04,27,12,19,279.40
2021,04,27,12,20,288.10
2021,04,27,12,21,295.80
2021,04,27,12,22,305.20
2021,04,27,12,23,322.10
2021,04,27,12,24,314.90
2021,04,27,12,25,305.30
2021,04,27,12,26,291.00
2021,04,27,12,27,304.70
2021,04,27,12,28,346.50
2021,04,27,12,29,386.50
2021,04,27,12,30,389.40
2021,04,27,12,31,387.80
2021,04,27,12,32,382.00
2021,04,27,12,33,361.00
2021,04,27,12,34,352.00
2021,04,27,12,35,329.10
2021,04,27,12,36,311.40
2021,04,27,12,37,322.30
2021,04,27,12,38,359.00
2021,04,27,12,39,370.20
2021,04,27,12,40,364.00
2021,04,27,12,41,359.50
2021,04,27,12,42,360.10
2021,04,27,12,43,388.10
2021,04,27,12,44,422.80
2021,04,27,12,45,436.60
2021,04,27,12,46,421.80
2021,04,27,12,47,399.00
2021,04,27,12,48,387.40
2021,04,27,12,49,404.20
2021,04,27,12,50,473.60
2021,04,27,12,51,506.60
2021,04,27,12,52,522.50
2021,04,27,12,53,504.00
2021,04,27,12,54,439.30
2021,04,27,12,55,392.90
2021,04,27,12,56,377.00
2021,04,27,12,57,357.10
2021,04,27,12,58,327.50
2021,04,27,12,59,309.80
2021,04,27,13,00,322.00
2021,04,27,13,01,329.40
2021,04,27,13,02,336.90
2021,04,27,13,03,365.60
2021,04,27,13,04,394.00
2021,04,27,13,05,394.00
2021,04,27,13,06,390.20
2021,04,27,13,07,365.70
2021,04,27,13,08,326.90
2021,04,27,13,09,290.00
2021,04,27,13,10,263.90
2021,04,27,13,11,247.00
2021,04,27,13,12,241.00
2021,04,27,13,13,223.70
2021,04,27,13,14,208.20
2021,04,27,13,15,206.00
2021,04,27,13,16,206.00
2021,04,27,13,17,212.00
2021,04,27,13,18,224.40
2021,04,27,13,19,231.60
2021,04,27,13,20,220.80
2021,04,27,13,21,205.70
2021,04,27,13,22,199.30
2021,04,27,13,23,197.60
2021,04,27,13,24,202.00
2021,04,27,13,25,211.70
2021,04,27,13,26,231.60
2021,04,27,13,27,268.60
2021,04,27,13,28,309.30
2021,04,27,13,29,338.70
2021,04,27,13,30,354.40
2021,04,27,13,31,359.40
2021,04,27,13,32,371.20
2021,04,27,13,33,389.20
2021,04,27,13,34,389.10
2021,04,27,13,35,372.20
2021,04,27,13,36,381.00
2021,04,27,13,37,380.00
2021,04,27,13,38,353.20
2021,04,27,13,39,319.30
2021,04,27,13,40,300.70
2021,04,27,13,41,308.50
2021,04,27,13,42,332.30
2021,04,27,13,43,360.30
2021,04,27,13,44,393.50
2021,04,27,13,45,414.70
2021,04,27,13,46,436.60
2021,04,27,13,47,453.10
2021,04,27,13,48,463.60
2021,04,27,13,49,469.30
2021,04,27,13,50,476.00
2021,04,27,13,51,475.00
2021,04,27,13,52,468.90
2021,04,27,13,53,459.80
2021,04,27,13,54,448.90
2021,04,27,13,55,428.70
2021,04,27,13,56,402.50
2021,04,27,13,57,380.30
2021,04,27,13,58,361.90
2021,04,27,13,59,346.80
2021,04,27,14,00,337.70
2021,04,27,14,01,326.60
2021,04,27,14,02,312.90
2021,04,27,14,03,292.90
2021,04,27,14,04,275.50
2021,04,27,14,05,264.00
2021,04,27,14,06,256.50
2021,04,27,14,07,249.00
2021,04,27,14,08,242.20
2021,04,27,14,09,222.60
2021,04,27,14,10,192.00
2021,04,27,14,11,167.00
2021,04,27,14,12,154.00
2021,04,27,14,13,149.10
2021,04,27,14,14,148.00
2021,04,27,14,15,148.80
2021,04,27,14,16,150.60
2021,04,27,14,17,157.00
2021,04,27,14,18,171.30
2021,04,27,14,19,194.00
2021,04,27,14,20,214.90
2021,04,27,14,21,228.30
2021,04,27,14,22,233.50
2021,04,27,14,23,235.50
2021,04,27,14,24,250.20
2021,04,27,14,25,268.90
2021,04,27,14,26,279.50
2021,04,27,14,27,279.30
2021,04,27,14,28,273.70
2021,04,27,14,29,258.70
2021,04,27,14,30,237.00
2021,04,27,14,31,222.30
2021,04,27,14,32,224.30
2021,04,27,14,33,238.30
2021,04,27,14,34,247.60
2021,04,27,14,35,237.60
2021,04,27,14,36,227.30
2021,04,27,14,37,217.90
2021,04,27,14,38,207.50
2021,04,27,14,39,196.20
2021,04,27,14,40,192.10
2021,04,27,14,41,202.00
2021,04,27,14,42,209.00
2021,04,27,14,43,204.70
2021,04,27,14,44,197.20
2021,04,27,14,45,188.10
2021,04,27,14,46,190.90
2021,04,27,14,47,198.00
2021,04,27,14,48,190.40
2021,04,27,14,49,165.80
2021,04,27,14,50,139.80
2021,04,27,14,51,132.60
2021,04,27,14,52,135.50
2021,04,27,14,53,139.20
2021,04,27,14,54,145.50
2021,04,27,14,55,154.00
2021,04,27,14,56,171.50
2021,04,27,14,57,191.90
2021,04,27,14,58,218.60
2021,04,27,14,59,250.50
2021,04,27,15,00,277.50
2021,04,27,15,01,291.90
2021,04,27,15,02,300.90
2021,04,27,15,03,310.60
2021,04,27,15,04,322.50
2021,04,27,15,05,332.80
2021,04,27,15,06,336.90
2021,04,27,15,07,330.30
2021,04,27,15,08,316.10
2021,04,27,15,09,281.80
2021,04,27,15,10,241.10
2021,04,27,15,11,212.00
2021,04,27,15,12,200.00
2021,04,27,15,13,195.80
2021,04,27,15,14,208.00
2021,04,27,15,15,233.00
2021,04,27,15,16,254.40
2021,04,27,15,17,261.50
2021,04,27,15,18,258.20
2021,04,27,15,19,249.60
2021,04,27,15,20,241.40
2021,04,27,15,21,241.30
2021,04,27,15,22,219.50
2021,04,27,15,23,176.50
2021,04,27,15,24,153.30
2021,04,27,15,25,143.90
2021,04,27,15,26,132.00
2021,04,27,15,27,127.00
2021,04,27,15,28,132.00
2021,04,27,15,29,144.50
2021,04,27,15,30,152.00
2021,04,27,15,31,157.00
2021,04,27,15,32,162.30
2021,04,27,15,33,164.90
2021,04,27,15,34,167.20
2021,04,27,15,35,173.50
2021,04,27,15,36,183.40
2021,04,27,15,37,180.20
2021,04,27,15,38,157.70
2021,04,27,15,39,138.20
2021,04,27,15,40,130.30
2021,04,27,15,41,132.50
2021,04,27,15,42,146.10
2021,04,27,15,43,162.90
2021,04,27,15,44,173.80
2021,04,27,15,45,181.30
2021,04,27,15,46,181.40
2021,04,27,15,47,173.20
2021,04,27,15,48,173.90
2021,04,27,15,49,181.20
2021,04,27,15,50,186.00
2021,04,27,15,51,185.40
2021,04,27,15,52,182.50
2021,04,27,15,53,182.30
2021,04,27,15,54,188.80
2021,04,27,15,55,198.90
2021,04,27,15,56,207.50
2021,04,27,15,57,211.00
2021,04,27,15,58,206.70
2021,04,27,15,59,201.30
2021,04,27,16,00,200.00
2021,04,27,16,01,201.60
2021,04,27,16,02,208.00
2021,04,27,16,03,217.60
2021,04,27,16,04,225.20
2021,04,27,16,05,229.10
2021,04,27,16,06,230.80
2021,04,27,16,07,234.70
2021,04,27,16,08,239.20
2021,04,27,16,09,246.30
2021,04,27,16,10,251.30
2021,04,27,16,11,254.00
2021,04,27,16,12,252.10
2021,04,27,16,13,241.30
2021,04,27,16,14,223.70
2021,04,27,16,15,203.50
2021,04,27,16,16,187.70
2021,04,27,16,17,173.80
2021,04,27,16,18,169.10
2021,04,27,16,19,179.40
2021,04,27,16,20,188.70
2021,04,27,16,21,192.40
2021,04,27,16,22,190.70
2021,04,27,16,23,187.60
2021,04,27,16,24,175.20
2021,04,27,16,25,171.90
2021,04,27,16,26,170.50
2021,04,27,16,27,177.10
2021,04,27,16,28,181.00
2021,04,27,16,29,189.20
2021,04,27,16,30,221.20
2021,04,27,16,31,240.50
2021,04,27,16,32,243.00
2021,04,27,16,33,243.00
2021,04,27,16,34,231.90
2021,04,27,16,35,229.80
2021,04,27,16,36,236.10
2021,04,27,16,37,230.80
2021,04,27,16,38,224.80
2021,04,27,16,39,215.80
2021,04,27,16,40,209.90
2021,04,27,16,41,212.50
2021,04,27,16,42,210.00
2021,04,27,16,43,202.00
2021,04,27,16,44,197.60
2021,04,27,16,45,193.20
2021,04,27,16,46,188.80
2021,04,27,16,47,188.00
2021,04,27,16,48,168.00
2021,04,27,16,49,171.00
2021,04,27,16,50,169.20
2021,04,27,16,51,154.40
2021,04,27,16,52,136.90
2021,04,27,16,53,130.00
2021,04,27,16,54,129.30
2021,04,27,16,55,129.70
2021,04,27,16,56,133.00
2021,04,27,16,57,130.00
2021,04,27,16,58,120.20
2021,04,27,16,59,114.60
2021,04,27,17,00,111.70
2021,04,27,17,01,106.10
2021,04,27,17,02,99.00
2021,04,27,17,03,93.20
2021,04,27,17,04,91.30
2021,04,27,17,05,98.40
2021,04,27,17,06,109.10
2021,04,27,17,07,119.70
2021,04,27,17,08,126.00
2021,04,27,17,09,128.80
2021,04,27,17,10,130.90
2021,04,27,17,11,135.30
2021,04,27,17,12,145.50
2021,04,27,17,13,158.40
2021,04,27,17,14,168.50
2021,04,27,17,15,173.30
2021,04,27,17,16,174.00
2021,04,27,17,17,175.70
2021,04,27,17,18,174.10
2021,04,27,17,19,176.10
2021,04,27,17,20,180.00
2021,04,27,17,21,187.30
2021,04,27,17,22,194.70
2021,04,27,17,23,201.10
2021,04,27,17,24,204.70
2021,04,27,17,25,203.40
2021,04,27,17,26,196.00
2021,04,27,17,27,188.00
2021,04,27,17,28,182.50
2021,04,27,17,29,182.40
2021,04,27,17,30,188.30
2021,04,27,17,31,195.70
2021,04,27,17,32,203.00
2021,04,27,17,33,210.70
2021,04,27,17,34,216.20
2021,04,27,17,35,221.30
2021,04,27,17,36,222.60
2021,04,27,17,37,219.10
2021,04,27,17,38,208.90
2021,04,27,17,39,196.20
2021,04,27,17,40,188.30
2021,04,27,17,41,187.00
2021,04,27,17,42,190.30
2021,04,27,17,43,193.90
2021,04,27,17,44,197.70
2021,04,27,17,45,201.30
2021,04,27,17,46,203.60
2021,04,27,17,47,206.60
2021,04,27,17,48,208.90
2021,04,27,17,49,208.90
2021,04,27,17,50,205.50
2021,04,27,17,51,201.00
2021,04,27,17,52,196.50
2021,04,27,17,53,192.80
2021,04,27,17,54,184.20
2021,04,27,17,55,173.30
2021,04,27,17,56,161.50
2021,04,27,17,57,151.40
2021,04,27,17,58,142.40
2021,04,27,17,59,132.90
2021,04,27,18,00,127.70
2021,04,27,18,01,123.80
2021,04,27,18,02,114.40
2021,04,27,18,03,107.30
2021,04,27,18,04,109.20
2021,04,27,18,05,112.20
2021,04,27,18,06,105.70
2021,04,27,18,07,98.30
2021,04,27,18,08,91.40
2021,04,27,18,09,85.30
2021,04,27,18,10,80.10
2021,04,27,18,11,80.00
2021,04,27,18,12,86.10
2021,04,27,18,13,91.90
2021,04,27,18,14,91.60
2021,04,27,18,15,88.70
2021,04,27,18,16,84.80
2021,04,27,18,17,83.10
2021,04,27,18,18,87.50
2021,04,27,18,19,94.90
2021,04,27,18,20,92.60
2021,04,27,18,21,89.20
2021,04,27,18,22,85.50
2021,04,27,18,23,85.30
2021,04,27,18,24,89.90
2021,04,27,18,25,92.10
2021,04,27,18,26,89.50
2021,04,27,18,27,85.70
2021,04,27,18,28,84.00
2021,04,27,18,29,84.00
2021,04,27,18,30,84.00
2021,04,27,18,31,78.30
2021,04,27,18,32,68.40
2021,04,27,18,33,62.50
2021,04,27,18,34,57.80
2021,04,27,18,35,52.30
2021,04,27,18,36,44.70
2021,04,27,18,37,37.30
2021,04,27,18,38,30.70
2021,04,27,18,39,28.00
2021,04,27,18,40,28.00
2021,04,27,18,41,29.90
2021,04,27,18,42,33.60
2021,04,27,18,43,37.50
2021,04,27,18,44,41.00
2021,04,27,18,45,45.00
2021,04,27,18,46,46.80
2021,04,27,18,47,47.00
2021,04,27,18,48,46.00
2021,04,27,18,49,46.00
2021,04,27,18,50,47.00
2021,04,27,18,51,47.00
2021,04,27,18,52,47.00
2021,04,27,18,53,46.70
2021,04,27,18,54,46.00
2021,04,27,18,55,46.40
2021,04,27,18,56,48.00
2021,04,27,18,57,50.10
2021,04,27,18,58,51.00
2021,04,27,18,59,52.30
2021,04,27,19,00,53.00
2021,04,27,19,01,53.00
2021,04,27,19,02,51.30
2021,04,27,19,03,49.10
2021,04,27,19,04,46.90
2021,04,27,19,05,43.30
2021,04,27,19,06,38.20
2021,04,27,19,07,33.80
2021,04,27,19,08,28.70
2021,04,27,19,09,25.60
2021,04,27,19,10,24.10
2021,04,27,19,11,23.00
2021,04,27,19,12,23.00
2021,04,27,19,13,23.00
2021,04,27,19,14,23.00
2021,04,27,19,15,23.00
2021,04,27,19,16,23.00
2021,04,27,19,17,23.00
2021,04,27,19,18,23.00
2021,04,27,19,19,23.00
2021,04,27,19,20,23.00
2021,04,27,19,21,23.00
